SCP
0 0 0 0 0 0 0 0 0 0 0 0 0 0 0 0 0 -0 -0 0 -0 -0 -0 -0 -0 -0 -0 -0 -0 -0 -0 -0 -0 -0 -0 -0 -0 -0 -0 -0 -0 -0 -0 -0 -0 -0 -0 -0 -0
0 0 0 0 0 0 0 0 0 0 0 0 0 0 0 0 0 0 0 0 -0 -0 -0 -0 -0 -0 -0 0 0 0 -0 -0 -0 -0 -0 -0 -0 -0 -0 -0 -0 -0 -0 -0 -0 -0 -0 -0 0
0 0 0 0 0 0 0 0 0 0 0 0 0 0 0 0 0 0 0 0 -0 -0 -0 -0 -0 -0 -0 -0 0 0 0 0 -0 -0 -0 -0 -0 -0 -0 -0 0 0 0 0 0 0 0 0 0
0 0 0 0 0 0 0 0 0 0 0 0 0 0 0 0 0 0 0 0 0 0 0 0 -0 -0 -0 -0 0 0 0 0 0 0 0 -0 0 0 0 0 0 0 0 0 0 0 0 0 0
0 0 0 0 0 0 0 0 0 0 0 0 0 0 0 0 0 0 0 0 0 0 0 0 0 0 0 -0 -0 0 0 0 0 0 0 0 0 0 0 0 0 0 0 0 0 0 0 0 0
0 0 0 0 0 0 0 0 0 0 0 0 0 0 0 0 0 0 0 0 0 0 0 0 0 0 0 0 0 0 0 0 0 0 0 0 0 0 0 0 0 0 0 0 0 0 0 0 0
0 0 0 0 0 0 0 0 0 0 0 0 0 0 0 0 0 0 0 0 0 0 0 0 0 0 0 0 0 0 0 0 0 0 0 0 0 0 0 0 0 0 0 0 0 0 0 0 0
0 0 0 0 0 0 0 0 0 0 0 0 0 0 0 0 0 0 0 0 0 0 0 0 0 0 0 0 0 0 0 0 0 0 0 0 0 0 0 0 0 0 0 0 0 0 0 0 0
0 0 0 0 0 0 0 0 0 0 0 0 0 0 0 0 0 0 0 0 0 0 0 0 0 0 0 0 0 0 0 0 0 0 0 0 0 0 0 0 0 0 0 0 0 0 0 0 0
0 0 0 0 0 0 0 0 0 0 0 0 0 0 0 0 0 0 0 0 0 0 0 0 0 0 0 0 0 0 0 0 0 0 0 0 0 0 0 0 0 0 0 0 0 0 0 0 0
0 0 0 0 0 0 0 0 0 0 0 0 0 0 0 -0 0 0 0 0 0 0 0 0 0 0 0 0 0 0 0 0 0 0 0 0 0 0 0 0 0 0 0 0 0 0 0 0 0
0 0 0 0 0 0 0 0 0 0 0 0 0 0 -0 0 0 0 0 0 0 0 0 0 0 0 0 0 0 0 0 0 0 0 0 0 0 0 0 0 0 0 0 0 0 0 0 0 0
0 0 0 0 0 0 0 0 0 -0 0 0 0 0 0 0 0 0 0 0 0 0 0 0 0 0 0 0 0 0 0 0 0 0 0 0 0 0 0 0 0 0 0 0 0 0 0 0 0
0 0 0 0 0 0 0 0 0 0 0 0 0 0 0 0 0 0 0 0 0 0 0 0 0 0 0 0 0 0 0 0 0 0 0 0 0 0 0 0 0 0 0 0 0 0 0 0 0
0 0 0 0 0 0 0 0 0 0 0 0 0 0 0 0 0 0 0 0 0 0 0 0 0 0 0 0 0 0 0 0 0 0 0 0 0 0 0 0 0 0 0 0 0 0 0 0 0
0 0 0 0 0 0 0 0 0 0 0 0 0 0 0 0 0 0 0 0 0 0 0 0 0 0 0 0 0 0 0 0 0 0 0 0 0 0 0 0 0 0 0 0 0 0 0 0 0
0 0 0 0 0 0 0 0 0 0 0 0 0 0 0 0 0 0 0 0 0 0 0 0 0 0 0 0 0 0 0 0 0 0 0 0 0 0 0 0 0 0 0 0 0 0 0 0 0
0 0 0 0 0 0 0 0 0 0 0 0 0 0 0 0 0 0 0 0 0 0 0 0 0 0 0 0 0 0 0 0 0 0 0 0 0 0 0 0 0 0 0 0 0 0 0 0 0
0 0 0 0 0 0 0 0 0 0 0 0 0 0 0 0 0 0 0 0 0 0 0 0 0 0 0 0 0 0 0 0 0 0 0 0 0 0 0 0 0 0 0 0 0 0 0 0 0
0 0 0 0 -0 0 0 0 0 0 0 0 0 0 0 0 0 0 0 0 0 0 0 0 0 0 0 0 0 0 0 0 0 0 0 0 0 0 0 0 0 0 0 0 0 0 0 0 0
0 0 0 0 0 0 0 0 0 0 0 0 0 0 0 0 0 0 0 0 0 0 0 0 0 0 0 0 0 0 0 0 0 0 0 0 0 0 0 0 0 0 0 0 0 0 0 0 0
0 0 0 0 0 -0 0 -0 -0 -0 -0 0 0 0 0 0 0 0 0 0 0 0 0 0 0 0 0 0 0 0 0 0 0 0 0 0 0 0 0 0 0 0 0 0 0 0 0 0 0
0 0 0 0 0 0 0 0 0 0 0 0 0 0 0 0 0 0 0 0 0 0 0 0 0 0 0 0 0 0 0 0 0 0 0 0 0 0 0 0 0 0 0 0 0 0 0 0 0
0 0 0 0 0 0 0 0 0 0 0 0 -0 -0 -0 0 0 0 0 0 0 0 1 0 0 0 0 0 0 0 0 0 0 0 0 0 0 0 0 0 0 0 0 0 0 0 0 0 0
0 0 0 0 0 0 0 0 0 0 0 0 -0 -0 -0 -0 -0 0 0 0 0 0 0 0 0 0 0 0 0 0 0 0 0 0 0 0 0 0 0 0 0 0 0 0 0 0 0 0 0
0 0 0 0 0 0 0 0 0 0 0 -0 -0 -0 -0 -0 -0 0 0 0 0 0 0 0 0 0 0 0 0 0 0 0 0 0 0 0 0 0 0 0 0 0 0 0 0 0 0 0 0
0 0 0 0 0 0 0 0 0 -0 -0 -0 -0 -0 -0 -0 0 0 0 0 0 0 0 0 0 0 0 0 0 0 0 0 0 0 0 0 0 0 0 0 0 0 0 0 0 0 0 0 0
0 0 0 0 0 0 0 0 0 -0 -0 -0 -0 -0 -0 0 0 0 0 0 0 0 0 0 0 0 0 0 0 0 0 0 0 0 0 0 0 0 0 0 0 0 0 0 0 0 0 0 0
0 0 0 0 -0 0 0 0 0 0 -0 -0 -0 -0 0 -0 -0 0 0 0 0 0 0 0 0 0 0 0 0 0 0 0 0 0 0 0 0 0 0 0 0 0 0 0 0 0 0 0 0
0 0 0 0 -0 0 -0 0 0 0 -0 -0 -0 0 -0 0 0 0 0 0 0 0 0 0 0 0 0 0 0 0 0 0 0 0 0 0 0 0 0 0 0 0 0 0 0 0 0 0 0
Wind_Speed_500mb
17 16 9 4 5 6 5 10 2 7 4 8 19 9 13 7 10 6 8 34 42 61 58 46 42 46 43 45 35 28 28 28 29 29 30 29 28 27 26 26 25 25 24 23 23 23 22 22 23
15 14 8 1 8 6 9 7 9 7 9 5 24 11 7 7 16 13 14 39 48 60 56 49 48 53 49 43 35 30 32 30 32 32 31 30 28 28 27 26 25 25 24 24 24 23 21 22 23
15 10 3 5 5 15 10 10 11 8 4 7 8 14 8 8 12 10 10 41 62 61 57 51 51 57 51 43 35 32 31 32 32 32 32 27 26 25 25 27 24 26 25 24 24 23 22 20 25
8 4 4 5 12 10 7 3 9 6 8 10 7 7 9 15 6 20 21 47 67 62 58 52 50 56 50 45 40 30 30 31 32 31 28 26 25 25 25 24 24 26 26 24 24 22 21 20 24
8 4 4 5 9 9 7 15 14 7 10 7 11 6 9 11 23 19 31 52 68 64 58 54 52 50 53 46 39 33 30 32 33 32 30 28 28 26 26 27 25 24 23 24 25 23 24 23 22
7 4 3 9 11 9 9 27 14 9 10 10 7 7 15 21 23 27 41 57 66 66 63 58 51 45 41 44 41 37 36 36 35 35 32 30 29 29 28 27 26 23 24 25 25 24 21 18 15
9 5 10 9 5 9 12 17 13 24 20 18 17 7 13 26 26 33 49 58 64 64 64 62 56 49 40 40 42 41 40 39 37 35 33 31 30 29 26 26 26 25 24 23 22 19 14 12 9
8 6 7 9 13 23 18 10 18 20 14 9 11 10 8 20 31 39 51 62 66 66 66 63 59 55 46 41 41 42 41 39 38 36 35 33 30 29 28 27 25 23 23 21 17 17 13 9 7
6 3 17 10 11 10 15 7 17 18 20 13 13 20 17 16 37 45 57 67 69 69 70 67 64 59 51 46 46 43 40 41 41 40 37 34 32 31 30 26 24 22 22 16 13 12 5 2 14
10 6 10 12 11 10 32 25 33 15 17 17 28 27 30 26 33 53 68 79 79 78 78 74 68 62 57 56 54 50 47 45 44 42 40 36 33 29 25 25 24 24 20 15 14 10 3 3 13
8 6 9 3 16 27 18 23 29 20 15 23 34 40 34 29 38 58 69 79 83 78 79 80 72 65 64 62 59 58 56 51 47 43 39 37 32 28 25 27 25 22 19 17 15 11 5 6 12
8 9 12 16 35 25 22 33 23 34 41 43 47 48 36 33 44 57 75 79 83 83 84 82 76 73 67 63 64 62 60 57 55 50 42 36 30 30 23 20 25 24 23 19 16 13 9 12 16
5 9 32 47 47 49 46 33 33 39 37 42 44 48 50 48 49 54 66 78 81 89 88 83 81 77 71 66 65 66 64 62 57 54 46 38 31 29 30 25 22 18 22 21 17 14 13 18 20
12 24 35 31 43 42 36 47 37 16 17 46 55 66 68 66 69 69 70 83 89 93 92 89 86 81 74 70 65 66 66 63 61 55 48 44 38 37 33 28 26 24 25 20 18 16 20 21 20
21 14 12 12 6 12 37 17 29 60 63 74 71 78 70 68 60 69 74 89 99 98 97 97 89 87 79 74 67 65 64 64 62 56 51 45 46 38 32 31 30 28 29 23 20 22 23 21 22
10 6 10 10 29 14 19 32 50 32 54 49 51 67 86 92 85 87 78 84 94 99 98 98 90 94 88 80 74 64 63 63 59 56 53 50 47 43 38 36 33 34 30 25 24 26 25 25 25
10 8 10 15 27 12 4 22 18 59 75 68 66 56 59 69 75 81 84 93 97 106 103 104 98 96 96 88 79 67 62 63 61 57 50 49 49 44 41 37 36 34 31 28 28 28 26 28 30
9 11 10 24 11 28 40 57 43 52 58 66 66 71 69 69 60 67 77 89 96 101 105 103 103 101 100 93 86 74 69 66 67 61 51 53 53 50 43 37 38 37 35 32 32 29 31 31 31
7 17 31 38 28 27 33 51 41 50 53 56 70 66 66 74 80 78 63 79 95 99 107 107 107 108 109 101 95 85 77 76 74 67 59 60 58 51 46 45 42 38 33 32 32 32 33 36 34
11 25 29 16 19 15 30 63 47 40 55 70 73 80 81 77 74 85 68 76 92 98 112 113 113 112 111 106 100 92 88 79 74 68 67 64 59 55 51 46 43 39 37 36 32 31 34 37 37
10 17 18 30 17 21 35 46 34 35 43 62 75 88 93 81 78 82 78 73 87 103 107 116 117 115 112 110 103 95 85 77 80 78 72 63 62 58 54 49 43 39 38 32 31 31 31 33 39
8 12 17 22 15 7 6 36 36 44 38 36 62 69 80 94 83 89 92 86 83 102 107 118 118 121 115 122 110 99 96 92 91 83 72 66 61 58 59 50 44 41 38 36 33 32 30 28 29
17 3 21 29 30 18 40 10 25 45 40 44 35 54 72 86 87 87 93 99 97 93 107 120 121 126 124 128 112 103 100 95 84 81 74 69 66 56 54 50 46 42 38 35 32 30 29 26 28
12 9 25 22 7 9 16 11 21 32 19 21 24 43 48 62 82 86 89 91 102 105 112 121 125 131 133 133 122 106 105 101 91 86 81 75 71 63 57 51 46 42 36 33 31 30 28 24 24
7 11 8 12 7 17 10 11 33 43 16 9 26 47 61 70 71 80 89 91 93 96 108 113 127 132 144 118 117 112 110 96 89 88 85 84 79 66 58 48 44 40 37 33 30 28 24 22 19
12 8 4 12 12 38 18 13 14 8 8 24 47 60 60 67 84 77 88 87 94 97 106 111 126 126 115 144 125 116 112 99 92 90 90 87 73 67 60 43 39 37 35 31 24 20 19 16 17
2 5 12 13 16 17 8 16 22 6 30 35 57 64 75 84 70 66 76 80 83 93 99 113 116 127 126 134 137 117 113 101 99 94 90 82 73 60 62 49 39 33 28 24 18 13 12 13 12
10 9 8 5 11 18 10 16 15 34 28 33 52 51 76 69 58 50 63 68 74 92 90 105 114 118 114 129 118 110 107 97 97 82 85 76 69 68 58 56 43 33 20 14 12 14 13 17 13
6 7 8 6 8 10 21 25 16 14 25 39 48 70 80 69 66 46 56 60 72 84 92 93 102 119 127 125 114 113 105 91 85 81 77 78 76 69 59 51 35 31 25 22 17 24 22 18 10
11 10 4 6 15 16 22 40 5 11 38 38 45 74 77 65 39 48 50 45 38 51 74 89 97 108 120 119 112 110 100 87 80 76 83 82 77 64 51 49 45 31 28 30 25 22 20 13 11
Wind_Direction_500mb
323 326 309 209 71 57 266 248 305 303 287 182 150 169 203 205 180 213 208 177 185 181 177 181 181 173 172 182 180 177 176 168 161 159 157 150 137 126 122 117 113 108 106 105 100 98 96 95 95
311 324 311 163 123 174 239 229 230 231 295 219 180 181 195 252 231 286 172 174 179 182 179 182 177 169 178 188 190 190 175 169 164 160 154 147 143 137 133 127 117 113 112 110 106 103 100 94 99
300 307 240 121 189 213 209 192 188 262 286 180 211 203 196 216 233 239 205 178 175 183 183 183 178 176 183 189 189 178 175 173 167 162 158 156 149 143 139 128 124 119 116 110 107 101 94 91 101
289 251 103 149 238 269 253 273 174 294 176 224 205 260 238 221 261 222 193 180 178 185 184 181 176 182 187 190 188 185 182 178 171 167 160 157 155 151 147 135 130 125 116 115 102 100 96 90 98
276 231 212 229 244 248 243 260 283 299 302 224 192 232 249 261 238 238 193 183 183 184 183 180 184 187 193 195 197 196 187 182 175 167 165 162 156 149 136 129 120 115 118 114 107 100 95 93 93
216 152 170 235 238 249 269 259 256 236 279 286 245 238 252 251 238 217 192 185 186 186 184 184 188 196 194 199 201 196 189 184 177 171 169 163 155 148 144 133 128 132 126 119 111 105 100 99 97
184 135 219 209 233 283 246 267 232 255 245 237 240 203 262 235 221 207 190 187 186 190 188 188 188 196 202 201 199 196 190 184 177 173 170 163 156 152 147 143 142 135 131 124 108 107 117 119 111
229 153 205 206 220 255 258 234 250 229 253 245 210 227 270 270 206 192 189 186 190 193 195 194 192 194 204 204 200 196 189 183 179 177 172 167 162 154 151 146 142 135 129 126 120 124 130 125 135
209 251 244 216 190 231 258 231 222 261 257 240 219 252 278 311 197 194 188 192 196 197 199 201 198 197 201 200 195 193 187 183 181 177 173 169 164 159 157 152 146 138 143 144 146 169 188 194 139
196 212 241 198 208 237 257 248 263 251 240 257 267 261 271 263 212 202 197 198 201 199 200 203 202 201 197 195 193 188 185 185 182 178 174 169 167 163 157 158 162 153 160 159 168 191 221 137 140
321 242 341 321 320 344 291 282 271 253 246 232 247 264 269 251 234 214 213 211 206 200 201 204 202 203 197 193 191 188 188 186 183 180 175 172 168 172 173 170 165 164 176 195 207 213 237 188 173
335 304 359 322 326 322 308 304 290 262 255 262 263 274 268 238 228 228 220 217 211 205 205 206 204 201 199 194 192 192 191 188 186 182 180 182 186 173 187 177 174 186 194 203 209 221 229 202 187
203 334 324 318 316 306 296 271 271 268 269 261 257 260 265 265 252 243 236 223 215 210 210 209 204 202 199 198 194 194 193 191 189 188 189 188 186 184 195 193 196 205 205 203 212 226 226 192 183
316 304 296 300 287 280 271 273 270 292 300 259 249 250 253 252 254 255 230 217 214 215 213 212 207 205 200 199 198 199 197 193 191 190 186 180 191 199 201 205 203 206 207 208 218 227 195 185 184
296 295 320 292 333 281 307 283 245 260 272 262 262 265 260 258 259 249 245 229 225 225 219 215 208 204 205 203 201 204 201 194 192 190 187 188 196 196 204 208 209 211 214 216 226 201 191 193 192
337 31 349 311 337 312 358 273 298 327 337 324 301 268 260 259 262 260 252 243 226 224 218 218 211 206 206 205 202 205 205 199 197 194 188 194 198 201 206 210 213 218 213 219 214 199 201 199 199
13 295 297 317 331 296 288 297 321 307 309 300 299 298 289 277 270 258 248 241 230 228 221 217 210 210 207 206 204 204 209 203 197 194 195 196 202 206 211 214 218 216 215 215 205 202 207 204 199
282 304 280 293 270 302 290 282 284 285 282 283 285 282 281 280 278 273 254 240 227 222 215 221 212 212 209 209 206 202 207 205 198 197 204 202 209 211 214 218 211 208 215 210 203 205 202 205 203
291 280 282 267 271 283 270 275 283 281 274 270 272 271 266 270 273 274 269 247 230 222 211 214 212 210 207 206 203 201 206 203 200 202 205 210 214 211 213 209 208 210 212 208 206 205 204 194 197
265 274 272 282 261 269 286 281 290 280 267 262 262 263 263 258 260 264 262 247 228 224 212 215 213 212 207 206 206 206 208 203 204 205 209 214 216 211 214 210 206 209 208 202 205 207 202 200 199
250 256 282 278 304 254 279 283 292 276 263 259 256 254 256 256 247 250 252 246 234 221 214 215 217 214 208 206 204 206 206 203 204 207 212 213 213 212 212 207 204 205 201 204 201 204 210 212 203
268 272 275 286 330 282 79 295 299 283 276 271 266 257 253 253 247 241 239 239 238 227 222 221 222 215 210 206 205 208 207 203 205 208 211 214 211 210 207 202 199 198 199 197 197 199 204 210 218
243 340 286 283 277 311 277 253 290 289 288 278 275 274 260 253 252 244 235 229 236 227 218 216 221 216 213 206 205 208 210 211 210 210 214 211 209 204 205 197 192 192 193 194 194 195 197 204 213
283 299 288 286 262 254 263 179 279 290 283 321 332 324 318 294 271 258 247 233 229 229 219 216 219 220 215 206 202 205 209 209 210 207 209 209 204 193 194 193 188 184 185 188 188 187 187 193 202
33 353 323 346 351 264 274 317 274 291 300 308 317 326 324 317 297 264 247 233 226 217 211 209 218 214 213 216 204 206 209 209 212 212 213 209 199 189 183 180 185 181 178 180 178 177 177 180 194
296 174 205 287 293 296 287 238 261 215 263 311 322 320 312 316 304 266 245 232 222 217 212 206 214 212 214 206 207 206 207 207 211 213 214 208 195 179 169 172 179 180 171 172 171 176 172 181 191
335 217 217 258 263 275 257 281 294 321 335 339 323 318 320 313 296 261 233 222 216 216 211 204 207 204 204 208 200 200 204 206 210 209 208 202 189 175 162 166 173 172 166 160 168 173 190 190 208
218 322 323 329 307 287 279 275 268 311 312 312 324 324 317 310 303 251 221 214 214 212 205 207 211 207 206 209 198 198 203 205 209 204 202 192 176 169 167 166 168 163 171 167 193 195 224 214 216
340 285 236 261 238 290 310 296 273 274 301 321 316 310 320 315 303 255 213 210 209 208 203 192 194 202 202 201 195 199 199 205 198 201 188 177 165 162 167 160 164 175 173 194 216 216 209 213 213
199 231 215 316 301 278 281 280 315 231 320 331 320 309 317 322 311 219 211 195 221 213 193 190 191 189 194 190 194 191 191 203 192 188 177 170 159 161 158 167 178 165 188 209 201 207 214 219 236
Wind_Speed_850mb
17 16 9 4 5 6 5 10 2 7 4 8 19 9 13 7 10 6 8 34 42 61 58 46 42 46 43 45 35 28 28 28 29 29 30 29 28 27 26 26 25 25 24 23 23 23 22 22 23
15 14 8 1 8 6 9 7 9 7 9 5 24 11 7 7 16 13 14 39 48 60 56 49 48 53 49 43 35 30 32 30 32 32 31 30 28 28 27 26 25 25 24 24 24 23 21 22 23
15 10 3 5 5 15 10 10 11 8 4 7 8 14 8 8 12 10 10 41 62 61 57 51 51 57 51 43 35 32 31 32 32 32 32 27 26 25 25 27 24 26 25 24 24 23 22 20 25
8 4 4 5 12 10 7 3 9 6 8 10 7 7 9 15 6 20 21 47 67 62 58 52 50 56 50 45 40 30 30 31 32 31 28 26 25 25 25 24 24 26 26 24 24 22 21 20 24
8 4 4 5 9 9 7 15 14 7 10 7 11 6 9 11 23 19 31 52 68 64 58 54 52 50 53 46 39 33 30 32 33 32 30 28 28 26 26 27 25 24 23 24 25 23 24 23 22
7 4 3 9 11 9 9 27 14 9 10 10 7 7 15 21 23 27 41 57 66 66 63 58 51 45 41 44 41 37 36 36 35 35 32 30 29 29 28 27 26 23 24 25 25 24 21 18 15
9 5 10 9 5 9 12 17 13 24 20 18 17 7 13 26 26 33 49 58 64 64 64 62 56 49 40 40 42 41 40 39 37 35 33 31 30 29 26 26 26 25 24 23 22 19 14 12 9
8 6 7 9 13 23 18 10 18 20 14 9 11 10 8 20 31 39 51 62 66 66 66 63 59 55 46 41 41 42 41 39 38 36 35 33 30 29 28 27 25 23 23 21 17 17 13 9 7
6 3 17 10 11 10 15 7 17 18 20 13 13 20 17 16 37 45 57 67 69 69 70 67 64 59 51 46 46 43 40 41 41 40 37 34 32 31 30 26 24 22 22 16 13 12 5 2 14
10 6 10 12 11 10 32 25 33 15 17 17 28 27 30 26 33 53 68 79 79 78 78 74 68 62 57 56 54 50 47 45 44 42 40 36 33 29 25 25 24 24 20 15 14 10 3 3 13
8 6 9 3 16 27 18 23 29 20 15 23 34 40 34 29 38 58 69 79 83 78 79 80 72 65 64 62 59 58 56 51 47 43 39 37 32 28 25 27 25 22 19 17 15 11 5 6 12
8 9 12 16 35 25 22 33 23 34 41 43 47 48 36 33 44 57 75 79 83 83 84 82 76 73 67 63 64 62 60 57 55 50 42 36 30 30 23 20 25 24 23 19 16 13 9 12 16
5 9 32 47 47 49 46 33 33 39 37 42 44 48 50 48 49 54 66 78 81 89 88 83 81 77 71 66 65 66 64 62 57 54 46 38 31 29 30 25 22 18 22 21 17 14 13 18 20
12 24 35 31 43 42 36 47 37 16 17 46 55 66 68 66 69 69 70 83 89 93 92 89 86 81 74 70 65 66 66 63 61 55 48 44 38 37 33 28 26 24 25 20 18 16 20 21 20
21 14 12 12 6 12 37 17 29 60 63 74 71 78 70 68 60 69 74 89 99 98 97 97 89 87 79 74 67 65 64 64 62 56 51 45 46 38 32 31 30 28 29 23 20 22 23 21 22
10 6 10 10 29 14 19 32 50 32 54 49 51 67 86 92 85 87 78 84 94 99 98 98 90 94 88 80 74 64 63 63 59 56 53 50 47 43 38 36 33 34 30 25 24 26 25 25 25
10 8 10 15 27 12 4 22 18 59 75 68 66 56 59 69 75 81 84 93 97 106 103 104 98 96 96 88 79 67 62 63 61 57 50 49 49 44 41 37 36 34 31 28 28 28 26 28 30
9 11 10 24 11 28 40 57 43 52 58 66 66 71 69 69 60 67 77 89 96 101 105 103 103 101 100 93 86 74 69 66 67 61 51 53 53 50 43 37 38 37 35 32 32 29 31 31 31
7 17 31 38 28 27 33 51 41 50 53 56 70 66 66 74 80 78 63 79 95 99 107 107 107 108 109 101 95 85 77 76 74 67 59 60 58 51 46 45 42 38 33 32 32 32 33 36 34
11 25 29 16 19 15 30 63 47 40 55 70 73 80 81 77 74 85 68 76 92 98 112 113 113 112 111 106 100 92 88 79 74 68 67 64 59 55 51 46 43 39 37 36 32 31 34 37 37
10 17 18 30 17 21 35 46 34 35 43 62 75 88 93 81 78 82 78 73 87 103 107 116 117 115 112 110 103 95 85 77 80 78 72 63 62 58 54 49 43 39 38 32 31 31 31 33 39
8 12 17 22 15 7 6 36 36 44 38 36 62 69 80 94 83 89 92 86 83 102 107 118 118 121 115 122 110 99 96 92 91 83 72 66 61 58 59 50 44 41 38 36 33 32 30 28 29
17 3 21 29 30 18 40 10 25 45 40 44 35 54 72 86 87 87 93 99 97 93 107 120 121 126 124 128 112 103 100 95 84 81 74 69 66 56 54 50 46 42 38 35 32 30 29 26 28
12 9 25 22 7 9 16 11 21 32 19 21 24 43 48 62 82 86 89 91 102 105 112 121 125 131 133 133 122 106 105 101 91 86 81 75 71 63 57 51 46 42 36 33 31 30 28 24 24
7 11 8 12 7 17 10 11 33 43 16 9 26 47 61 70 71 80 89 91 93 96 108 113 127 132 144 118 117 112 110 96 89 88 85 84 79 66 58 48 44 40 37 33 30 28 24 22 19
12 8 4 12 12 38 18 13 14 8 8 24 47 60 60 67 84 77 88 87 94 97 106 111 126 126 115 144 125 116 112 99 92 90 90 87 73 67 60 43 39 37 35 31 24 20 19 16 17
2 5 12 13 16 17 8 16 22 6 30 35 57 64 75 84 70 66 76 80 83 93 99 113 116 127 126 134 137 117 113 101 99 94 90 82 73 60 62 49 39 33 28 24 18 13 12 13 12
10 9 8 5 11 18 10 16 15 34 28 33 52 51 76 69 58 50 63 68 74 92 90 105 114 118 114 129 118 110 107 97 97 82 85 76 69 68 58 56 43 33 20 14 12 14 13 17 13
6 7 8 6 8 10 21 25 16 14 25 39 48 70 80 69 66 46 56 60 72 84 92 93 102 119 127 125 114 113 105 91 85 81 77 78 76 69 59 51 35 31 25 22 17 24 22 18 10
11 10 4 6 15 16 22 40 5 11 38 38 45 74 77 65 39 48 50 45 38 51 74 89 97 108 120 119 112 110 100 87 80 76 83 82 77 64 51 49 45 31 28 30 25 22 20 13 11
Wind_Direction_850mb
323 326 309 209 71 57 266 248 305 303 287 182 150 169 203 205 180 213 208 177 185 181 177 181 181 173 172 182 180 177 176 168 161 159 157 150 137 126 122 117 113 108 106 105 100 98 96 95 95
311 324 311 163 123 174 239 229 230 231 295 219 180 181 195 252 231 286 172 174 179 182 179 182 177 169 178 188 190 190 175 169 164 160 154 147 143 137 133 127 117 113 112 110 106 103 100 94 99
300 307 240 121 189 213 209 192 188 262 286 180 211 203 196 216 233 239 205 178 175 183 183 183 178 176 183 189 189 178 175 173 167 162 158 156 149 143 139 128 124 119 116 110 107 101 94 91 101
289 251 103 149 238 269 253 273 174 294 176 224 205 260 238 221 261 222 193 180 178 185 184 181 176 182 187 190 188 185 182 178 171 167 160 157 155 151 147 135 130 125 116 115 102 100 96 90 98
276 231 212 229 244 248 243 260 283 299 302 224 192 232 249 261 238 238 193 183 183 184 183 180 184 187 193 195 197 196 187 182 175 167 165 162 156 149 136 129 120 115 118 114 107 100 95 93 93
216 152 170 235 238 249 269 259 256 236 279 286 245 238 252 251 238 217 192 185 186 186 184 184 188 196 194 199 201 196 189 184 177 171 169 163 155 148 144 133 128 132 126 119 111 105 100 99 97
184 135 219 209 233 283 246 267 232 255 245 237 240 203 262 235 221 207 190 187 186 190 188 188 188 196 202 201 199 196 190 184 177 173 170 163 156 152 147 143 142 135 131 124 108 107 117 119 111
229 153 205 206 220 255 258 234 250 229 253 245 210 227 270 270 206 192 189 186 190 193 195 194 192 194 204 204 200 196 189 183 179 177 172 167 162 154 151 146 142 135 129 126 120 124 130 125 135
209 251 244 216 190 231 258 231 222 261 257 240 219 252 278 311 197 194 188 192 196 197 199 201 198 197 201 200 195 193 187 183 181 177 173 169 164 159 157 152 146 138 143 144 146 169 188 194 139
196 212 241 198 208 237 257 248 263 251 240 257 267 261 271 263 212 202 197 198 201 199 200 203 202 201 197 195 193 188 185 185 182 178 174 169 167 163 157 158 162 153 160 159 168 191 221 137 140
321 242 341 321 320 344 291 282 271 253 246 232 247 264 269 251 234 214 213 211 206 200 201 204 202 203 197 193 191 188 188 186 183 180 175 172 168 172 173 170 165 164 176 195 207 213 237 188 173
335 304 359 322 326 322 308 304 290 262 255 262 263 274 268 238 228 228 220 217 211 205 205 206 204 201 199 194 192 192 191 188 186 182 180 182 186 173 187 177 174 186 194 203 209 221 229 202 187
203 334 324 318 316 306 296 271 271 268 269 261 257 260 265 265 252 243 236 223 215 210 210 209 204 202 199 198 194 194 193 191 189 188 189 188 186 184 195 193 196 205 205 203 212 226 226 192 183
316 304 296 300 287 280 271 273 270 292 300 259 249 250 253 252 254 255 230 217 214 215 213 212 207 205 200 199 198 199 197 193 191 190 186 180 191 199 201 205 203 206 207 208 218 227 195 185 184
296 295 320 292 333 281 307 283 245 260 272 262 262 265 260 258 259 249 245 229 225 225 219 215 208 204 205 203 201 204 201 194 192 190 187 188 196 196 204 208 209 211 214 216 226 201 191 193 192
337 31 349 311 337 312 358 273 298 327 337 324 301 268 260 259 262 260 252 243 226 224 218 218 211 206 206 205 202 205 205 199 197 194 188 194 198 201 206 210 213 218 213 219 214 199 201 199 199
13 295 297 317 331 296 288 297 321 307 309 300 299 298 289 277 270 258 248 241 230 228 221 217 210 210 207 206 204 204 209 203 197 194 195 196 202 206 211 214 218 216 215 215 205 202 207 204 199
282 304 280 293 270 302 290 282 284 285 282 283 285 282 281 280 278 273 254 240 227 222 215 221 212 212 209 209 206 202 207 205 198 197 204 202 209 211 214 218 211 208 215 210 203 205 202 205 203
291 280 282 267 271 283 270 275 283 281 274 270 272 271 266 270 273 274 269 247 230 222 211 214 212 210 207 206 203 201 206 203 200 202 205 210 214 211 213 209 208 210 212 208 206 205 204 194 197
265 274 272 282 261 269 286 281 290 280 267 262 262 263 263 258 260 264 262 247 228 224 212 215 213 212 207 206 206 206 208 203 204 205 209 214 216 211 214 210 206 209 208 202 205 207 202 200 199
250 256 282 278 304 254 279 283 292 276 263 259 256 254 256 256 247 250 252 246 234 221 214 215 217 214 208 206 204 206 206 203 204 207 212 213 213 212 212 207 204 205 201 204 201 204 210 212 203
268 272 275 286 330 282 79 295 299 283 276 271 266 257 253 253 247 241 239 239 238 227 222 221 222 215 210 206 205 208 207 203 205 208 211 214 211 210 207 202 199 198 199 197 197 199 204 210 218
243 340 286 283 277 311 277 253 290 289 288 278 275 274 260 253 252 244 235 229 236 227 218 216 221 216 213 206 205 208 210 211 210 210 214 211 209 204 205 197 192 192 193 194 194 195 197 204 213
283 299 288 286 262 254 263 179 279 290 283 321 332 324 318 294 271 258 247 233 229 229 219 216 219 220 215 206 202 205 209 209 210 207 209 209 204 193 194 193 188 184 185 188 188 187 187 193 202
33 353 323 346 351 264 274 317 274 291 300 308 317 326 324 317 297 264 247 233 226 217 211 209 218 214 213 216 204 206 209 209 212 212 213 209 199 189 183 180 185 181 178 180 178 177 177 180 194
296 174 205 287 293 296 287 238 261 215 263 311 322 320 312 316 304 266 245 232 222 217 212 206 214 212 214 206 207 206 207 207 211 213 214 208 195 179 169 172 179 180 171 172 171 176 172 181 191
335 217 217 258 263 275 257 281 294 321 335 339 323 318 320 313 296 261 233 222 216 216 211 204 207 204 204 208 200 200 204 206 210 209 208 202 189 175 162 166 173 172 166 160 168 173 190 190 208
218 322 323 329 307 287 279 275 268 311 312 312 324 324 317 310 303 251 221 214 214 212 205 207 211 207 206 209 198 198 203 205 209 204 202 192 176 169 167 166 168 163 171 167 193 195 224 214 216
340 285 236 261 238 290 310 296 273 274 301 321 316 310 320 315 303 255 213 210 209 208 203 192 194 202 202 201 195 199 199 205 198 201 188 177 165 162 167 160 164 175 173 194 216 216 209 213 213
199 231 215 316 301 278 281 280 315 231 320 331 320 309 317 322 311 219 211 195 221 213 193 190 191 189 194 190 194 191 191 203 192 188 177 170 159 161 158 167 178 165 188 209 201 207 214 219 236